Temp_Advection
nan nan nan nan nan nan nan nan nan nan nan nan nan nan nan nan nan nan nan nan nan nan
nan 0 -0 0 0 0 0 -0 -0 0 -0 -0 -0 -0 -0 0 -0 -0 -0 -0 -0 nan
nan 0 0 0 0 0 0 0 0 0 0 -0 -0 -0 -0 0 0 -0 -0 -0 0 nan
nan 0 0 0 0 0 0 0 0 0 0 0 0 0 0 0 0 -0 0 0 -0 nan
nan 0 0 0 0 0 0 0 0 0 0 0 0 0 0 -0 0 0 0 0 0 nan
nan 1 0 0 0 0 0 0 0 0 0 0 0 0 0 0 -0 0 1 0 0 nan
nan 1 1 0 0 1 0 0 0 0 0 0 0 0 0 -0 0 0 0 1 0 nan
nan 1 0 0 1 0 0 0 0 0 0 0 0 0 -0 0 -0 -0 0 0 0 nan
nan 1 0 0 1 0 0 0 0 0 0 0 0 0 0 0 -0 -0 0 0 0 nan
nan 0 0 1 1 0 1 1 0 0 0 0 -0 -0 -0 0 0 -0 0 0 -0 nan
nan 0 1 0 1 0 1 1 1 1 0 0 0 0 -0 -0 -0 0 0 0 -0 nan
nan 0 0 0 0 1 1 1 0 1 0 0 0 -0 0 -0 -0 0 1 1 0 nan
nan 0 0 1 1 1 1 1 1 0 0 1 0 -0 0 0 -0 -0 -0 0 1 nan
nan nan nan nan nan nan nan nan nan nan nan nan nan nan nan nan nan nan nan nan nan nan
Wind_Speed
10 7 11 10 10 9 10 12 8 8 9 10 10 10 10 8 8 12 11 10 11 11
10 11 13 10 9 11 9 8 8 9 9 10 11 11 10 7 9 12 11 10 11 14
12 12 12 11 11 11 11 8 9 9 9 10 11 12 11 8 9 11 11 9 13 13
13 12 10 12 12 11 10 9 9 9 9 10 11 11 11 10 8 13 12 13 13 15
15 13 12 12 13 12 10 11 10 10 10 10 11 12 12 11 12 13 13 14 15 16
16 13 13 12 12 12 11 11 11 12 12 12 13 12 11 11 13 14 15 14 16 17
16 14 13 13 13 13 12 11 12 13 13 13 13 12 10 12 16 17 16 16 16 15
16 14 13 14 13 13 14 13 14 14 13 13 13 11 13 16 17 18 18 16 11 14
17 15 15 15 14 15 14 14 13 13 13 13 11 16 17 16 18 19 19 13 14 16
19 17 17 16 15 15 14 14 14 15 13 13 14 18 19 16 18 19 17 12 16 19
21 19 18 17 16 16 15 15 15 14 14 16 16 18 20 20 19 18 13 14 16 20
23 21 20 19 18 17 16 16 17 15 15 17 16 18 21 21 17 18 16 15 18 21
25 23 22 20 19 17 18 18 18 18 19 17 17 20 19 19 19 19 19 19 20 18
26 25 23 22 21 20 21 20 19 17 17 17 15 19 20 22 21 21 20 20 20 20
Wind_Direction
223 230 235 230 249 268 278 295 309 321 326 333 338 347 358 343 345 337 344 339 343 334
210 224 239 265 265 276 278 303 308 316 324 331 337 344 355 334 327 333 338 343 319 328
230 235 249 264 264 272 283 270 291 311 323 327 329 332 338 330 326 326 331 326 320 321
238 241 253 266 274 277 283 285 294 303 313 313 317 321 325 328 326 317 324 324 319 319
235 244 255 264 268 273 272 285 292 298 302 302 305 313 316 319 319 321 320 317 318 311
239 240 251 260 265 270 265 274 287 292 296 297 301 306 310 311 311 313 314 312 300 308
233 237 246 256 262 261 266 273 281 286 289 293 296 301 294 299 314 314 311 307 309 316
231 233 242 254 257 258 267 271 276 281 284 288 295 294 290 300 309 313 313 312 321 304
232 232 236 250 254 258 266 274 278 278 282 283 289 280 287 297 305 312 314 315 307 306
232 232 239 248 253 257 262 267 267 274 276 277 281 284 292 303 308 312 312 322 302 299
231 233 236 244 250 255 259 261 267 270 268 268 273 278 286 297 304 310 315 296 297 290
233 234 235 242 249 253 256 259 262 266 266 269 271 280 280 292 301 309 302 295 287 294
235 236 238 242 248 253 251 255 257 257 262 267 266 279 284 292 302 303 302 303 307 307
235 237 238 240 243 246 251 257 262 262 263 268 268 272 281 287 296 302 305 309 311 314
Height
1581 1581 1581 1580 1579 1579 1578 1576 1575 1574 1573 1571 1570 1569 1568 1566 1565 1563 1561 1560 1559 1557
1578 1579 1578 1578 1577 1576 1576 1574 1573 1572 1571 1569 1568 1566 1565 1564 1563 1561 1560 1558 1557 1556
1574 1575 1575 1575 1574 1573 1572 1571 1570 1569 1568 1567 1566 1564 1563 1562 1561 1559 1557 1556 1555 1553
1570 1571 1571 1571 1571 1570 1569 1569 1568 1566 1565 1564 1563 1562 1561 1559 1559 1557 1555 1553 1552 1550
1565 1567 1567 1566 1567 1567 1566 1566 1565 1564 1563 1562 1560 1559 1558 1556 1555 1554 1552 1551 1549 1547
1559 1561 1563 1563 1563 1563 1563 1562 1562 1561 1560 1559 1557 1556 1555 1553 1552 1551 1549 1547 1546 1544
1556 1557 1559 1559 1559 1559 1559 1559 1558 1557 1556 1555 1554 1553 1552 1550 1549 1547 1545 1543 1542 1540
1552 1554 1554 1555 1556 1555 1555 1554 1553 1552 1552 1551 1550 1549 1548 1547 1545 1544 1541 1539 1538 1538
1548 1550 1550 1551 1551 1550 1550 1550 1549 1548 1548 1547 1547 1545 1545 1544 1542 1539 1537 1535 1534 1533
1544 1545 1545 1546 1546 1546 1546 1546 1545 1544 1543 1543 1543 1541 1540 1539 1537 1535 1533 1531 1531 1528
1539 1540 1540 1540 1541 1541 1541 1540 1540 1539 1539 1538 1538 1536 1535 1534 1533 1531 1529 1529 1526 1523
1533 1534 1535 1535 1535 1535 1535 1535 1535 1535 1534 1533 1532 1531 1530 1529 1528 1526 1525 1523 1521 1518
1527 1528 1529 1530 1531 1531 1531 1531 1530 1530 1529 1527 1527 1525 1524 1524 1522 1521 1519 1518 1515 1513
1520 1521 1523 1524 1525 1525 1525 1525 1524 1523 1523 1523 1522 1520 1519 1518 1517 1516 1514 1512 1510 1507